Location: Blackwater Beach
(38.5801°N, 75.1577°W)
Time: 10:06:51
(UTC+00:00)

CZ-4C R/B - Pass Details

Date: 13 February 2026
Orbit: 480 x 1497 km, 63.4° (Epoch: 11 March)

Event Time Altitude Azimuth Distance (km) Brightness Sun altitude
Rises 23:20:46 0° 251° (WSW) 2,682 6.9 -9.3°
Reaches altitude 10° 23:23:10 10° 267° (W) 1,891 5.7 -9.7°
Maximum altitude 23:26:30 22° 320° (NW) 1,418 3.8 -10.4°
Drops below altitude 10° 23:30:27 10° 11° (N) 2,285 4.3 -11.1°
Sets 23:33:42 0° 26° (NNE) 3,417 5.0 -11.8°
